FENGYUN 1C DEB, 31218

Orbit data source: Space-Track

FENGYUN 1C DEB, 31218 is space debris in SSO originally from a launch on Mon, 10 May 1999 UTC launched from the Taiyaun Space Center, China (TSC). Fengyun 1C debris stems from the Chinese weather satellite Fengyun-1C, which was intentionally destroyed by a Chinese anti-satellite missile in 2007. This event dramatically increased the amount of space debris, with thousands of trackable fragments posing hazards to satellites and human spaceflight. The Fengyun 1C debris cloud has become a focal point in discussions about space sustainability and the need for international regulations to prevent the creation of new debris.

Loading next visibility...
Identifier
31218, 1999-025BKY
Orbit
SSO
Country
Flag of CNCN / PRC
Related business
Manufacturer
Unknown
Mission
Spacecraft
Bus & Motor
Unknown
Mass
Unknown
Launch date (UTC)
1999-05-10 (27 years ago)
Launch vehicle
Unknown
Launch site
Taiyaun Space Center, China (TSC)
Object type
Payload
Rocket body
Debris
Shape & HBR
Unknown shape, 0.1 m
Radar Cross Section
Medium (>0.1 m² and <1 m²)

Expand to show TLE details & history
Last TLE update: 3 days ago

TLE from 3 days ago
0 FENGYUN 1C DEB
1 31218U 99025BKY 26205.33516287  .00058166  00000-0  61927-2 0  9993
2 31218  98.8392 343.1926 0008162  70.2271 289.9822 14.88631182  3061
Epoch: 2026-07-24T08:02Z
TLE epoch observation values (Epoch: 2026-07-24T08:02:38.071Z)
Latitude
-0.00007°
Longitude
-79.52929°
Altitude
603.272 km
Speed
7.559 km/s
True Right ascension
22h 52m 46s
True Declination
0° 00' 00"
Sunlit
Object was in full shadow at epoch
Visualization orbit readout
Latitude
Unknown
Longitude
Unknown
Altitude
Unknown
Speed
Unknown
Apparent Right ascension
Unknown
Apparent Declination
Unknown
Sunlit
N/A
Visualization observer readout
Local Sidereal Time
20:05:37
Azimuth
Unknown
Elevation
Unknown
Doppler factor
Unknown
Orbital elements
Apogee altitude
604.98 km
Perigee altitude
593.59 km
Semi-major axis
6,977.422 km
Eccentricity
0.00082
Inclination
98.8392°
RAAN
343.1926°
Arg. of periapsis
70.2271°
True anomaly
289.89427°
Mean anomaly
289.9822°
Eccentric anomaly
289.93824°
Mean motion
3.72392 °/min
Orbital period
96.67 mins
BSTAR
0.0061927
Loading maneuver chart data...
Computing Atmospheric mass density...

Documentation

Showing up to 5 results
|